Location: Unspecified
(0.0000°N, 0.0000°E)
Time: 18:49:28
(UTC+00:00)

Vanguard 1 - All Passes

Search period start: 05 July 2015 00:00
Search period end: 15 July 2015 00:00
Orbit: 650 x 3835 km, 34.2° (Epoch: 04 July)

Date Brightness Start Highest point End Pass type
(mag) Time Alt. Az. Time Alt. Az. Time Alt. Az.
05 Jul - 00:38:54 10° SW 00:46:57 16° S 00:57:09 10° SSE visible
05 Jul - 03:05:15 10° SSW 03:19:53 23° SSE 03:37:05 10° ESE visible
05 Jul - 05:29:35 10° SW 05:51:45 49° SSE 06:09:44 10° ENE visible
05 Jul - 07:56:28 10° WSW 08:19:18 77° NW 08:32:54 10° NE daylight
05 Jul - 10:30:26 10° W 10:43:08 24° NW 10:50:56 10° N daylight
05 Jul - 17:53:49 10° N 17:56:35 16° NE 18:00:04 10° ENE daylight
05 Jul - 20:11:16 10° WNW 20:16:44 59° SSW 20:26:12 10° SE visible
05 Jul - 22:34:22 10° WSW 22:40:57 20° SSW 22:50:09 10° SSE night (unlit)
06 Jul - 01:02:15 10° SSW 01:10:30 15° S 01:21:04 10° SE visible
06 Jul - 03:26:51 10° SSW 03:43:23 28° SSE 04:01:56 10° ESE visible
06 Jul - 05:51:03 10° SW 06:14:14 60° SSE 06:32:00 10° ENE daylight
06 Jul - 08:18:58 10° WSW 08:40:53 61° NW 08:53:53 10° NE daylight
06 Jul - 10:55:56 10° WNW 11:04:52 16° NW 11:10:38 10° N daylight
06 Jul - 18:13:42 10° NNW 18:17:42 29° NE 18:23:04 10° E daylight
06 Jul - 20:32:51 10° W 20:38:22 38° SSW 20:47:27 10° SE visible
06 Jul - 22:57:43 10° SW 23:03:40 16° S 23:11:17 10° SSE night (unlit)
07 Jul - 01:24:55 10° SSW 01:34:08 16° S 01:46:14 10° SE visible
07 Jul - 03:48:13 10° SSW 04:06:35 34° SSE 04:26:08 10° E visible
07 Jul - 06:12:37 10° SW 06:36:28 74° SE 06:53:52 10° ENE daylight
07 Jul - 08:41:58 10° WSW 09:02:26 48° NW 09:14:40 10° NNE daylight
07 Jul - 11:23:57 10° NW 11:26:52 11° NNW 11:28:27 10° NNW daylight
07 Jul - 18:34:15 10° NW 18:38:44 54° NE 18:45:15 10° ESE visible
07 Jul - 20:54:52 10° W 21:00:16 26° SSW 21:08:26 10° SSE visible
07 Jul - 23:21:35 10° SSW 23:26:38 13° S 23:32:43 10° SSE night (unlit)
08 Jul - 01:46:52 10° SSW 01:57:43 18° SSE 02:12:07 10° SE visible
08 Jul - 04:09:29 10° SSW 04:29:30 42° SSE 04:49:38 10° E visible
08 Jul - 06:34:23 10° SW 06:58:29 89° SE 07:15:24 10° NE daylight
08 Jul - 09:05:37 10° W 09:24:03 36° NW 09:35:15 10° NNE daylight
08 Jul - 18:55:13 10° WNW 18:59:52 83° SW 19:06:56 10° SE visible
08 Jul - 21:17:27 10° WSW 21:22:24 19° SSW 21:29:09 10° SSE visible
08 Jul - 23:45:29 10° SSW 23:49:48 12° S 23:55:01 10° SSE night (unlit)
09 Jul - 02:08:19 10° SSW 02:21:10 22° SSE 02:37:57 10° ESE visible
09 Jul - 04:30:43 10° SW 04:52:08 51° SSE 05:12:31 10° ENE visible
09 Jul - 06:56:25 10° WSW 07:20:22 76° NW 07:36:40 10° NE daylight
09 Jul - 09:30:02 10° W 09:45:49 27° NW 09:55:39 10° NNE daylight
09 Jul - 16:58:25 10° N 17:01:04 16° NE 17:04:02 10° ENE daylight
09 Jul - 19:16:33 10° WNW 19:21:12 47° SSW 19:28:13 10° SE visible
09 Jul - 21:40:49 10° SW 21:44:47 14° SSW 21:49:30 10° SSE visible
10 Jul - 00:08:24 10° S 00:13:06 12° S 00:19:09 10° SSE visible
10 Jul - 02:29:31 10° SSW 02:44:21 27° SSE 03:03:13 10° E visible
10 Jul - 04:52:01 10° SW 05:14:32 63° SE 05:34:53 10° ENE visible
10 Jul - 07:18:51 10° WSW 07:42:08 62° NW 07:57:44 10° NE daylight
10 Jul - 09:55:26 10° WNW 10:07:49 20° NNW 10:15:47 10° N daylight
10 Jul - 17:18:25 10° NNW 17:22:18 30° NE 17:26:44 10° E daylight
10 Jul - 19:38:21 10° W 19:42:47 29° SSW 19:49:08 10° SSE visible
10 Jul - 22:06:02 10° SSW 22:07:22 10° S 22:08:36 10° S night (unlit)
11 Jul - 00:30:09 10° S 00:36:27 13° SSE 00:45:04 10° SE visible
11 Jul - 02:50:35 10° SSW 03:07:16 34° SSE 03:27:41 10° E visible
11 Jul - 05:13:28 10° SW 05:36:43 76° SE 05:56:50 10° ENE visible
11 Jul - 07:41:46 10° WSW 08:03:55 49° NW 08:18:36 10° NNE daylight
11 Jul - 10:22:02 10° WNW 10:30:05 14° NNW 10:35:23 10° N daylight
11 Jul - 17:39:05 10° NW 17:43:24 60° NE 17:48:38 10° ESE daylight
11 Jul - 20:00:43 10° WSW 20:04:37 18° SSW 20:09:39 10° SSE visible
12 Jul - 00:51:16 10° SSW 00:59:43 16° SSE 01:11:40 10° SE visible
12 Jul - 03:11:36 10° SSW 03:29:55 42° SSE 03:51:24 10° E visible
12 Jul - 05:35:07 10° SW 05:58:47 90° NW 06:18:27 10° NE visible
12 Jul - 08:05:19 10° W 08:25:49 38° NW 08:39:20 10° NNE daylight
12 Jul - 18:00:12 10° WNW 18:04:33 69° SW 18:10:03 10° SE daylight
12 Jul - 20:24:09 10° SW 20:26:40 12° SSW 20:29:24 10° S visible
13 Jul - 01:12:07 10° SSW 01:22:48 20° SSE 01:38:00 10° ESE visible
13 Jul - 03:32:39 10° SW 03:52:19 52° SE 04:14:27 10° ENE visible
13 Jul - 05:57:02 10° WSW 06:20:44 75° NW 06:39:49 10° NE daylight
13 Jul - 08:29:39 10° W 08:47:53 30° NW 08:59:55 10° NNE daylight
13 Jul - 16:02:20 10° NNW 16:05:39 18° NNE 16:08:49 10° ENE daylight
13 Jul - 18:21:45 10° W 18:25:51 36° SSW 18:31:03 10° SE visible
14 Jul - 01:32:54 10° SSW 01:45:38 26° SSE 02:03:38 10° E visible
14 Jul - 03:53:49 10° SW 04:14:33 64° SE 04:36:58 10° ENE visible
14 Jul - 06:19:21 10° WSW 06:42:42 62° NW 07:00:58 10° NE daylight
14 Jul - 08:54:51 10° WNW 09:10:12 22° NNW 09:20:23 10° NNE daylight
14 Jul - 16:22:39 10° NNW 16:26:59 34° NE 16:31:06 10° ESE daylight
14 Jul - 18:43:50 10° WSW 18:47:21 21° SSW 18:51:35 10° SSE visible
14 Jul - 23:37:49 10° SSE 23:39:15 10° SSE 23:41:48 10° SSE night (unlit)
